Station;Bremen-Oslebshausen;Bremen-Ost;Bremerhaven Hansastraße
Messkomponente;Feinstaub (PM2,5);Feinstaub (PM2,5);Feinstaub (PM2,5)
Einheit;µg/m³;µg/m³;µg/m³
Messzeit (Angaben in MESZ bzw. MEZ);Stundenwerte;Stundenwerte;Stundenwerte

01.04.2024 00:00;21;14;48
01.04.2024 01:00;15;14;48
01.04.2024 02:00;18;13;49
01.04.2024 03:00;13;14;45
01.04.2024 04:00;11;16;39
01.04.2024 05:00;13;19;34
01.04.2024 06:00;13;22;31
01.04.2024 07:00;13;22;27
01.04.2024 08:00;19;21;25
01.04.2024 09:00;20;22;23
01.04.2024 10:00;20;22;23
01.04.2024 11:00;23;24;24
01.04.2024 12:00;24;23;24
01.04.2024 13:00;30;24;16
01.04.2024 14:00;22;20;16
01.04.2024 15:00;18;20;16
01.04.2024 16:00;19;17;13
01.04.2024 17:00;20;11;9
01.04.2024 18:00;19;9;12
01.04.2024 19:00;14;9;17
01.04.2024 20:00;14;10;14
01.04.2024 21:00;11;8;8
01.04.2024 22:00;8;7;8
01.04.2024 23:00;11;4;8
02.04.2024 00:00;8;4;6
02.04.2024 01:00;7;4;5
02.04.2024 02:00;8;4;6
02.04.2024 03:00;9;4;7
02.04.2024 04:00;6;6;6
02.04.2024 05:00;7;8;7
02.04.2024 06:00;5;9;7
02.04.2024 07:00;8;8;9
02.04.2024 08:00;3;7;10
02.04.2024 09:00;6;6;9
02.04.2024 10:00;10;5;8
02.04.2024 11:00;12;5;7
02.04.2024 12:00;9;5;6
02.04.2024 13:00;10;6;7
02.04.2024 14:00;6;6;7
02.04.2024 15:00;4;5;7
02.04.2024 16:00;10;5;7
02.04.2024 17:00;4;4;6
02.04.2024 18:00;8;4;7
02.04.2024 19:00;6;4;7
02.04.2024 20:00;7;4;7
02.04.2024 21:00;4;4;6
02.04.2024 22:00;8;5;6
02.04.2024 23:00;9;6;5
03.04.2024 00:00;6;6;6
03.04.2024 01:00;10;7;5
03.04.2024 02:00;10;7;6
03.04.2024 03:00;8;8;5
03.04.2024 04:00;7;10;4
03.04.2024 05:00;6;9;4
03.04.2024 06:00;7;9;3
03.04.2024 07:00;10;9;3
03.04.2024 08:00;7;10;3
03.04.2024 09:00;11;12;6
03.04.2024 10:00;9;12;6
03.04.2024 11:00;9;10;5
03.04.2024 12:00;12;9;4
03.04.2024 13:00;11;8;4
03.04.2024 14:00;8;6;5
03.04.2024 15:00;9;5;5
03.04.2024 16:00;8;4;4
03.04.2024 17:00;9;4;4
03.04.2024 18:00;12;4;4
03.04.2024 19:00;8;4;5
03.04.2024 20:00;7;4;5
03.04.2024 21:00;4;4;6
03.04.2024 22:00;7;4;7
03.04.2024 23:00;7;4;8
04.04.2024 00:00;5;4;8
04.04.2024 01:00;5;4;9
04.04.2024 02:00;5;3;6
04.04.2024 03:00;4;2;6
04.04.2024 04:00;4;2;6
04.04.2024 05:00;3;2;7
04.04.2024 06:00;3;2;7
04.04.2024 07:00;7;2;6
04.04.2024 08:00;1;2;5
04.04.2024 09:00;2;2;5
04.04.2024 10:00;5;2;5
04.04.2024 11:00;7;3;5
04.04.2024 12:00;5;4;5
04.04.2024 13:00;7;4;5
04.04.2024 14:00;4;4;5
04.04.2024 15:00;6;4;5
04.04.2024 16:00;5;2;4
04.04.2024 17:00;10;2;4
04.04.2024 18:00;7;2;4
04.04.2024 19:00;5;2;4
04.04.2024 20:00;1;3;4
04.04.2024 21:00;5;4;4
04.04.2024 22:00;2;4;5
04.04.2024 23:00;6;4;5
05.04.2024 00:00;2;5;5
05.04.2024 01:00;5;5;5
05.04.2024 02:00;8;6;5
05.04.2024 03:00;7;9;8
05.04.2024 04:00;7;9;9
05.04.2024 05:00;11;9;9
05.04.2024 06:00;5;10;9
05.04.2024 07:00;7;10;10
05.04.2024 08:00;7;9;9
05.04.2024 09:00;9;9;8
05.04.2024 10:00;11;8;8
05.04.2024 11:00;15;8;7
05.04.2024 12:00;9;7;8
05.04.2024 13:00;10;6;7
05.04.2024 14:00;12;6;8
05.04.2024 15:00;12;7;8
05.04.2024 16:00;10;7;7
05.04.2024 17:00;10;6;7
05.04.2024 18:00;10;5;5
05.04.2024 19:00;8;5;4
05.04.2024 20:00;4;4;5
05.04.2024 21:00;6;4;7
05.04.2024 22:00;4;4;7
05.04.2024 23:00;1;4;7
06.04.2024 00:00;5;5;7
06.04.2024 01:00;1;6;6
06.04.2024 02:00;4;6;6
06.04.2024 03:00;7;7;7
06.04.2024 04:00;7;6;7
06.04.2024 05:00;7;6;7
06.04.2024 06:00;5;6;7
06.04.2024 07:00;4;7;7
06.04.2024 08:00;2;9;7
06.04.2024 09:00;9;10;7
06.04.2024 10:00;12;7;7
06.04.2024 11:00;14;6;6
06.04.2024 12:00;10;6;6
06.04.2024 13:00;7;4;6
06.04.2024 14:00;9;4;6
06.04.2024 15:00;12;2;6
06.04.2024 16:00;8;2;6
06.04.2024 17:00;7;4;7
06.04.2024 18:00;8;5;9
06.04.2024 19:00;9;5;8
06.04.2024 20:00;7;6;9
06.04.2024 21:00;7;7;10
06.04.2024 22:00;4;8;10
06.04.2024 23:00;5;7;10
07.04.2024 00:00;1;7;9
07.04.2024 01:00;3;7;8
07.04.2024 02:00;5;7;9
07.04.2024 03:00;4;7;10
07.04.2024 04:00;4;7;10
07.04.2024 05:00;3;6;10
07.04.2024 06:00;4;6;11
07.04.2024 07:00;8;6;9
07.04.2024 08:00;8;7;8
07.04.2024 09:00;5;7;8
07.04.2024 10:00;9;7;7
07.04.2024 11:00;8;6;6
07.04.2024 12:00;10;4;5
07.04.2024 13:00;7;4;5
07.04.2024 14:00;12;4;5
07.04.2024 15:00;7;3;5
07.04.2024 16:00;3;2;5
07.04.2024 17:00;6;2;5
07.04.2024 18:00;10;2;5
07.04.2024 19:00;3;3;6
07.04.2024 20:00;6;3;6
07.04.2024 21:00;1;4;7
07.04.2024 22:00;8;4;7
07.04.2024 23:00;1;4;5
08.04.2024 00:00;1;5;5
08.04.2024 01:00;4;7;5
08.04.2024 02:00;7;8;5
08.04.2024 03:00;16;8;6
08.04.2024 04:00;11;8;6
08.04.2024 05:00;11;8;5
08.04.2024 06:00;9;7;6
08.04.2024 07:00;7;7;6
08.04.2024 08:00;8;6;7
08.04.2024 09:00;8;7;9
08.04.2024 10:00;8;6;8
08.04.2024 11:00;5;4;6
08.04.2024 12:00;9;4;6
08.04.2024 13:00;8;4;6
08.04.2024 14:00;9;4;4
08.04.2024 15:00;7;4;4
08.04.2024 16:00;8;5;4
08.04.2024 17:00;6;5;6
08.04.2024 18:00;7;5;8
08.04.2024 19:00;4;7;10
08.04.2024 20:00;9;7;12
08.04.2024 21:00;8;7;9
08.04.2024 22:00;6;8;9
08.04.2024 23:00;7;9;9
09.04.2024 00:00;7;9;9
09.04.2024 01:00;7;10;8
09.04.2024 02:00;11;10;9
09.04.2024 03:00;9;10;13
09.04.2024 04:00;8;11;14
09.04.2024 05:00;9;12;13
09.04.2024 06:00;8;13;13
09.04.2024 07:00;9;13;11
09.04.2024 08:00;13;13;12
09.04.2024 09:00;18;12;15
09.04.2024 10:00;8;11;14
09.04.2024 11:00;11;10;12
09.04.2024 12:00;8;11;9
09.04.2024 13:00;9;10;7
09.04.2024 14:00;13;8;9
09.04.2024 15:00;5;7;8
09.04.2024 16:00;7;6;5
09.04.2024 17:00;6;6;5
09.04.2024 18:00;3;5;4
09.04.2024 19:00;1;4;3
09.04.2024 20:00;2;4;2
09.04.2024 21:00;3;3;2
09.04.2024 22:00;1;3;2
09.04.2024 23:00;1;3;3
10.04.2024 00:00;2;3;3
10.04.2024 01:00;1;4;4
10.04.2024 02:00;4;5;4
10.04.2024 03:00;7;6;3
10.04.2024 04:00;7;6;4
10.04.2024 05:00;5;5;4
10.04.2024 06:00;6;5;4
10.04.2024 07:00;1;5;4
10.04.2024 08:00;2;5;3
10.04.2024 09:00;1;5;2
10.04.2024 10:00;2;4;2
10.04.2024 11:00;4;5;2
10.04.2024 12:00;9;4;2
10.04.2024 13:00;5;3;2
10.04.2024 14:00;7;3;2
10.04.2024 15:00;6;3;3
10.04.2024 16:00;7;3;4
10.04.2024 17:00;6;3;5
10.04.2024 18:00;6;4;6
10.04.2024 19:00;9;4;6
10.04.2024 20:00;7;4;7
10.04.2024 21:00;4;5;9
10.04.2024 22:00;4;6;10
10.04.2024 23:00;4;6;9
11.04.2024 00:00;6;6;7
11.04.2024 01:00;1;6;5
11.04.2024 02:00;4;7;5
11.04.2024 03:00;4;8;5
11.04.2024 04:00;4;7;5
11.04.2024 05:00;3;7;5
11.04.2024 06:00;5;7;5
11.04.2024 07:00;7;7;5
11.04.2024 08:00;5;7;5
11.04.2024 09:00;6;8;5
11.04.2024 10:00;5;9;6
11.04.2024 11:00;4;9;6
11.04.2024 12:00;9;8;6
11.04.2024 13:00;7;7;6
11.04.2024 14:00;9;7;7
11.04.2024 15:00;13;8;8
11.04.2024 16:00;9;9;9
11.04.2024 17:00;7;9;9
11.04.2024 18:00;12;10;10
11.04.2024 19:00;12;10;10
11.04.2024 20:00;12;10;10
11.04.2024 21:00;10;12;10
11.04.2024 22:00;7;12;10
11.04.2024 23:00;11;13;10
12.04.2024 00:00;12;13;11
12.04.2024 01:00;11;14;10
12.04.2024 02:00;13;16;10
12.04.2024 03:00;12;21;9
12.04.2024 04:00;9;24;11
12.04.2024 05:00;8;24;11
12.04.2024 06:00;7;21;14
12.04.2024 07:00;9;18;16
12.04.2024 08:00;13;15;17
12.04.2024 09:00;9;12;16
12.04.2024 10:00;10;11;12
12.04.2024 11:00;8;10;9
12.04.2024 12:00;9;9;8
12.04.2024 13:00;16;8;8
12.04.2024 14:00;11;7;5
12.04.2024 15:00;9;6;4
12.04.2024 16:00;12;6;2
12.04.2024 17:00;9;6;4
12.04.2024 18:00;10;5;5
12.04.2024 19:00;10;4;6
12.04.2024 20:00;4;4;7
12.04.2024 21:00;6;2;6
12.04.2024 22:00;3;2;6
12.04.2024 23:00;6;3;5
13.04.2024 00:00;5;5;5
13.04.2024 01:00;8;8;5
13.04.2024 02:00;8;5;5
13.04.2024 03:00;11;6;5
13.04.2024 04:00;13;6;5
13.04.2024 05:00;7;6;4
13.04.2024 06:00;11;6;4
13.04.2024 07:00;11;7;3
13.04.2024 08:00;11;7;3
13.04.2024 09:00;9;6;3
13.04.2024 10:00;7;5;3
13.04.2024 11:00;12;5;3
13.04.2024 12:00;12;5;3
13.04.2024 13:00;9;5;4
13.04.2024 14:00;9;4;4
13.04.2024 15:00;7;4;4
13.04.2024 16:00;15;5;5
13.04.2024 17:00;10;6;6
13.04.2024 18:00;12;6;7
13.04.2024 19:00;8;7;9
13.04.2024 20:00;8;9;11
13.04.2024 21:00;12;9;12
13.04.2024 22:00;9;11;15
13.04.2024 23:00;13;11;14
14.04.2024 00:00;12;11;8
14.04.2024 01:00;3;8;8
14.04.2024 02:00;10;6;9
14.04.2024 03:00;9;7;10
14.04.2024 04:00;7;7;9
14.04.2024 05:00;7;7;7
14.04.2024 06:00;5;6;7
14.04.2024 07:00;5;6;7
14.04.2024 08:00;3;5;6
14.04.2024 09:00;3;5;5
14.04.2024 10:00;4;4;5
14.04.2024 11:00;5;3;4
14.04.2024 12:00;6;2;4
14.04.2024 13:00;7;2;5
14.04.2024 14:00;5;2;5
14.04.2024 15:00;4;2;5
14.04.2024 16:00;5;2;5
14.04.2024 17:00;5;2;5
14.04.2024 18:00;4;3;5
14.04.2024 19:00;8;3;5
14.04.2024 20:00;6;4;5
14.04.2024 21:00;3;5;5
14.04.2024 22:00;1;5;6
14.04.2024 23:00;4;5;4
15.04.2024 00:00;7;5;4
15.04.2024 01:00;3;5;3
15.04.2024 02:00;4;5;2
15.04.2024 03:00;4;6;2
15.04.2024 04:00;3;6;2
15.04.2024 05:00;3;6;2
15.04.2024 06:00;3;6;2
15.04.2024 07:00;2;6;2
15.04.2024 08:00;3;5;2
15.04.2024 09:00;5;6;2
15.04.2024 10:00;9;6;2
15.04.2024 11:00;9;6;3
15.04.2024 12:00;9;6;4
15.04.2024 13:00;13;8;5
15.04.2024 14:00;9;7;6
15.04.2024 15:00;11;5;6
15.04.2024 16:00;8;4;6
15.04.2024 17:00;10;6;6
15.04.2024 18:00;9;8;7
15.04.2024 19:00;13;7;8
15.04.2024 20:00;7;5;4
15.04.2024 21:00;6;4;4
15.04.2024 22:00;4;3;2
15.04.2024 23:00;5;2;2
16.04.2024 00:00;5;2;2
16.04.2024 01:00;6;2;2
16.04.2024 02:00;4;2;2
16.04.2024 03:00;3;2;2
16.04.2024 04:00;3;2;2
16.04.2024 05:00;3;2;2
16.04.2024 06:00;2;2;2
16.04.2024 07:00;2;2;2
16.04.2024 08:00;2;3;2
16.04.2024 09:00;2;3;2
16.04.2024 10:00;4;2;2
16.04.2024 11:00;2;2;2
16.04.2024 12:00;6;2;2
16.04.2024 13:00;4;2;2
16.04.2024 14:00;2;3;2
16.04.2024 15:00;9;3;2
16.04.2024 16:00;4;2;2
16.04.2024 17:00;6;2;2
16.04.2024 18:00;4;2;2
16.04.2024 19:00;2;3;3
16.04.2024 20:00;1;4;5
16.04.2024 21:00;1;3;6
16.04.2024 22:00;1;3;5
16.04.2024 23:00;1;3;5
17.04.2024 00:00;1;4;4
17.04.2024 01:00;4;4;4
17.04.2024 02:00;1;4;8
17.04.2024 03:00;1;4;7
17.04.2024 04:00;1;5;8
17.04.2024 05:00;0;5;7
17.04.2024 06:00;1;6;8
17.04.2024 07:00;3;6;6
17.04.2024 08:00;0;6;7
17.04.2024 09:00;2;6;6
17.04.2024 10:00;1;5;4
17.04.2024 11:00;8;5;6
17.04.2024 12:00;8;5;6
17.04.2024 13:00;4;5;5
17.04.2024 14:00;1;5;4
17.04.2024 15:00;3;4;2
17.04.2024 16:00;5;2;3
17.04.2024 17:00;10;2;3
17.04.2024 18:00;4;2;4
17.04.2024 19:00;6;3;4
17.04.2024 20:00;2;3;4
17.04.2024 21:00;4;3;5
17.04.2024 22:00;4;4;4
17.04.2024 23:00;2;4;4
18.04.2024 00:00;4;3;4
18.04.2024 01:00;1;3;4
18.04.2024 02:00;4;3;4
18.04.2024 03:00;3;4;5
18.04.2024 04:00;3;4;4
18.04.2024 05:00;3;5;4
18.04.2024 06:00;2;5;4
18.04.2024 07:00;2;6;4
18.04.2024 08:00;2;6;2
18.04.2024 09:00;2;7;2
18.04.2024 10:00;6;4;2
18.04.2024 11:00;8;3;2
18.04.2024 12:00;6;3;2
18.04.2024 13:00;5;3;4
18.04.2024 14:00;8;4;4
18.04.2024 15:00;5;4;4
18.04.2024 16:00;5;2;4
18.04.2024 17:00;7;2;6
18.04.2024 18:00;4;2;6
18.04.2024 19:00;2;3;6
18.04.2024 20:00;2;4;6
18.04.2024 21:00;1;4;5
18.04.2024 22:00;4;4;5
18.04.2024 23:00;4;4;5
19.04.2024 00:00;3;4;5
19.04.2024 01:00;3;4;4
19.04.2024 02:00;2;4;4
19.04.2024 03:00;2;6;5
19.04.2024 04:00;2;7;4
19.04.2024 05:00;2;8;4
19.04.2024 06:00;2;7;3
19.04.2024 07:00;4;7;3
19.04.2024 08:00;7;7;3
19.04.2024 09:00;2;7;2
19.04.2024 10:00;8;7;2
19.04.2024 11:00;7;5;2
19.04.2024 12:00;8;4;3
19.04.2024 13:00;5;4;2
19.04.2024 14:00;5;5;3
19.04.2024 15:00;7;4;4
19.04.2024 16:00;5;4;4
19.04.2024 17:00;5;4;4
19.04.2024 18:00;3;4;4
19.04.2024 19:00;8;4;4
19.04.2024 20:00;3;4;3
19.04.2024 21:00;3;3;4
19.04.2024 22:00;1;2;3
19.04.2024 23:00;1;2;3
20.04.2024 00:00;2;2;3
20.04.2024 01:00;1;2;2
20.04.2024 02:00;4;2;2
20.04.2024 03:00;5;2;3
20.04.2024 04:00;4;3;2
20.04.2024 05:00;3;2;2
20.04.2024 06:00;2;2;2
20.04.2024 07:00;2;2;2
20.04.2024 08:00;2;2;2
20.04.2024 09:00;2;2;2
20.04.2024 10:00;2;2;2
20.04.2024 11:00;2;2;2
20.04.2024 12:00;2;2;2
20.04.2024 13:00;7;2;2
20.04.2024 14:00;7;2;3
20.04.2024 15:00;5;2;4
20.04.2024 16:00;3;2;4
20.04.2024 17:00;6;2;4
20.04.2024 18:00;5;2;4
20.04.2024 19:00;1;2;5
20.04.2024 20:00;3;2;5
20.04.2024 21:00;2;3;6
20.04.2024 22:00;2;4;6
20.04.2024 23:00;4;4;5
21.04.2024 00:00;1;2;4
21.04.2024 01:00;1;3;3
21.04.2024 02:00;1;2;2
21.04.2024 03:00;1;2;2
21.04.2024 04:00;1;2;2
21.04.2024 05:00;1;2;2
21.04.2024 06:00;1;2;2
21.04.2024 07:00;1;3;3
21.04.2024 08:00;1;4;4
21.04.2024 09:00;1;5;4
21.04.2024 10:00;2;4;3
21.04.2024 11:00;3;3;2
21.04.2024 12:00;6;2;2
21.04.2024 13:00;9;2;2
21.04.2024 14:00;3;2;3
21.04.2024 15:00;4;2;4
21.04.2024 16:00;3;2;5
21.04.2024 17:00;3;2;5
21.04.2024 18:00;2;3;6
21.04.2024 19:00;1;5;6
21.04.2024 20:00;3;5;5
21.04.2024 21:00;2;4;6
21.04.2024 22:00;1;4;6
21.04.2024 23:00;1;4;11
22.04.2024 00:00;2;4;9
22.04.2024 01:00;1;4;9
22.04.2024 02:00;7;5;6
22.04.2024 03:00;14;7;5
22.04.2024 04:00;8;8;6
22.04.2024 05:00;6;9;8
22.04.2024 06:00;6;10;8
22.04.2024 07:00;6;11;7
22.04.2024 08:00;4;10;6
22.04.2024 09:00;6;5;5
22.04.2024 10:00;7;4;6
22.04.2024 11:00;10;4;6
22.04.2024 12:00;15;4;5
22.04.2024 13:00;13;3;6
22.04.2024 14:00;15;4;6
22.04.2024 15:00;12;4;5
22.04.2024 16:00;9;4;7
22.04.2024 17:00;5;4;7
22.04.2024 18:00;1;5;6
22.04.2024 19:00;8;5;6
22.04.2024 20:00;4;5;6
22.04.2024 21:00;4;5;7
22.04.2024 22:00;2;6;8
22.04.2024 23:00;3;6;8
23.04.2024 00:00;5;6;9
23.04.2024 01:00;3;6;8
23.04.2024 02:00;3;6;8
23.04.2024 03:00;3;8;9
23.04.2024 04:00;2;10;6
23.04.2024 05:00;2;11;7
23.04.2024 06:00;2;11;7
23.04.2024 07:00;2;12;9
23.04.2024 08:00;6;15;11
23.04.2024 09:00;10;13;11
23.04.2024 10:00;10;7;11
23.04.2024 11:00;14;6;10
23.04.2024 12:00;14;6;8
23.04.2024 13:00;19;5;8
23.04.2024 14:00;14;5;9
23.04.2024 15:00;9;7;9
23.04.2024 16:00;6;6;9
23.04.2024 17:00;6;7;9
23.04.2024 18:00;4;8;9
23.04.2024 19:00;8;8;9
23.04.2024 20:00;5;9;9
23.04.2024 21:00;7;9;8
23.04.2024 22:00;7;10;7
23.04.2024 23:00;10;9;5
24.04.2024 00:00;13;9;4
24.04.2024 01:00;6;9;2
24.04.2024 02:00;11;8;2
24.04.2024 03:00;9;6;4
24.04.2024 04:00;8;5;3
24.04.2024 05:00;6;4;3
24.04.2024 06:00;5;4;3
24.04.2024 07:00;5;4;2
24.04.2024 08:00;6;4;2
24.04.2024 09:00;5;5;2
24.04.2024 10:00;4;4;2
24.04.2024 11:00;2;4;2
24.04.2024 12:00;6;4;2
24.04.2024 13:00;6;3;2
24.04.2024 14:00;12;2;2
24.04.2024 15:00;12;2;3
24.04.2024 16:00;6;2;4
24.04.2024 17:00;6;3;4
24.04.2024 18:00;7;4;5
24.04.2024 19:00;4;4;4
24.04.2024 20:00;2;4;4
24.04.2024 21:00;1;5;5
24.04.2024 22:00;1;5;5
24.04.2024 23:00;2;5;4
25.04.2024 00:00;3;5;5
25.04.2024 01:00;4;5;6
25.04.2024 02:00;2;7;6
25.04.2024 03:00;2;9;6
25.04.2024 04:00;2;9;8
25.04.2024 05:00;2;8;7
25.04.2024 06:00;2;8;5
25.04.2024 07:00;2;9;4
25.04.2024 08:00;2;9;3
25.04.2024 09:00;8;8;3
25.04.2024 10:00;5;7;3
25.04.2024 11:00;8;5;3
25.04.2024 12:00;8;4;3
25.04.2024 13:00;11;4;3
25.04.2024 14:00;7;2;4
25.04.2024 15:00;10;2;3
25.04.2024 16:00;5;2;4
25.04.2024 17:00;5;2;4
25.04.2024 18:00;7;3;4
25.04.2024 19:00;6;4;4
25.04.2024 20:00;4;4;6
25.04.2024 21:00;4;5;8
25.04.2024 22:00;5;7;7
25.04.2024 23:00;4;8;6
26.04.2024 00:00;3;7;6
26.04.2024 01:00;5;6;7
26.04.2024 02:00;8;7;7
26.04.2024 03:00;8;7;10
26.04.2024 04:00;7;6;11
26.04.2024 05:00;10;5;11
26.04.2024 06:00;5;5;11
26.04.2024 07:00;4;6;8
26.04.2024 08:00;7;7;6
26.04.2024 09:00;6;7;6
26.04.2024 10:00;7;8;6
26.04.2024 11:00;8;8;5
26.04.2024 12:00;3;8;4
26.04.2024 13:00;9;8;3
26.04.2024 14:00;14;7;4
26.04.2024 15:00;9;5;5
26.04.2024 16:00;14;4;4
26.04.2024 17:00;12;4;5
26.04.2024 18:00;9;4;5
26.04.2024 19:00;7;4;5
26.04.2024 20:00;6;5;5
26.04.2024 21:00;4;5;6
26.04.2024 22:00;3;7;9
26.04.2024 23:00;4;8;22
27.04.2024 00:00;7;9;24
27.04.2024 01:00;8;10;12
27.04.2024 02:00;7;12;12
27.04.2024 03:00;7;19;12
27.04.2024 04:00;6;23;12
27.04.2024 05:00;7;27;11
27.04.2024 06:00;7;28;12
27.04.2024 07:00;10;25;15
27.04.2024 08:00;10;23;18
27.04.2024 09:00;17;17;22
27.04.2024 10:00;27;15;19
27.04.2024 11:00;23;13;15
27.04.2024 12:00;19;11;12
27.04.2024 13:00;17;7;10
27.04.2024 14:00;14;5;8
27.04.2024 15:00;15;4;7
27.04.2024 16:00;8;4;6
27.04.2024 17:00;6;3;5
27.04.2024 18:00;10;5;5
27.04.2024 19:00;3;7;6
27.04.2024 20:00;8;6;6
27.04.2024 21:00;4;6;6
27.04.2024 22:00;6;7;6
27.04.2024 23:00;4;7;6
28.04.2024 00:00;8;7;6
28.04.2024 01:00;5;8;6
28.04.2024 02:00;11;8;7
28.04.2024 03:00;12;8;7
28.04.2024 04:00;8;8;7
28.04.2024 05:00;7;7;8
28.04.2024 06:00;9;7;8
28.04.2024 07:00;5;7;7
28.04.2024 08:00;9;6;6
28.04.2024 09:00;9;6;5
28.04.2024 10:00;7;6;5
28.04.2024 11:00;10;6;5
28.04.2024 12:00;9;7;6
28.04.2024 13:00;8;7;7
28.04.2024 14:00;9;6;7
28.04.2024 15:00;12;5;7
28.04.2024 16:00;9;5;6
28.04.2024 17:00;8;5;6
28.04.2024 18:00;9;5;6
28.04.2024 19:00;1;4;7
28.04.2024 20:00;6;4;7
28.04.2024 21:00;5;4;8
28.04.2024 22:00;1;4;6
28.04.2024 23:00;0;4;6
29.04.2024 00:00;1;4;6
29.04.2024 01:00;1;5;5
29.04.2024 02:00;0;6;5
29.04.2024 03:00;0;7;5
29.04.2024 04:00;1;8;5
29.04.2024 05:00;1;8;5
29.04.2024 06:00;1;8;4
29.04.2024 07:00;1;8;4
29.04.2024 08:00;0;8;3
29.04.2024 09:00;1;6;2
29.04.2024 10:00;5;5;2
29.04.2024 11:00;9;5;3
29.04.2024 12:00;11;5;5
29.04.2024 13:00;11;4;6
29.04.2024 14:00;9;4;7
29.04.2024 15:00;8;3;7
29.04.2024 16:00;4;2;7
29.04.2024 17:00;7;3;6
29.04.2024 18:00;6;4;7
29.04.2024 19:00;5;4;7
29.04.2024 20:00;3;5;8
29.04.2024 21:00;5;5;7
29.04.2024 22:00;4;6;8
29.04.2024 23:00;3;6;8
30.04.2024 00:00;4;6;7
30.04.2024 01:00;2;6;6
30.04.2024 02:00;8;5;5
30.04.2024 03:00;7;5;4
30.04.2024 04:00;6;6;4
30.04.2024 05:00;5;6;4
30.04.2024 06:00;4;6;5
30.04.2024 07:00;4;7;5
30.04.2024 08:00;8;7;5
30.04.2024 09:00;8;6;5
30.04.2024 10:00;11;5;4
30.04.2024 11:00;10;6;5
30.04.2024 12:00;12;8;6
30.04.2024 13:00;15;8;7
30.04.2024 14:00;14;8;10
30.04.2024 15:00;14;7;11
30.04.2024 16:00;14;7;11
30.04.2024 17:00;13;9;12
30.04.2024 18:00;11;11;13
30.04.2024 19:00;13;12;14
30.04.2024 20:00;13;13;15
30.04.2024 21:00;11;14;17
30.04.2024 22:00;10;17;20
30.04.2024 23:00;12;18;20